This demonstration page uses our WeatherBlox Daily Observations layout. Learn more.

Left ArrowRight Arrow

41.12389, -100.76542

Hourly Observations for September 7, 2017

Temp ( °F °C ) Dew Point ( °F °C ) Humidity (%) Winds ( mph kmh ) Pressure ( in mb ) Visibility ( mi km ) Precip ( " mm )
12:53 am 00:53 Clear 47 8.3 43 6.1 86 86 E 3 6 30.13 1020 10 16 0.00 0.00
1:53 am 01:53 Clear 47 8.3 42 5.6 83 83 Calm 30.12 1020 10 16 0.00 0.00
2:53 am 02:53 Clear 45 7.2 41 5 86 86 Calm 30.11 1020 10 16 0.00 0.00
3:53 am 03:53 Clear 46 7.8 41 5 83 83 E 3 6 30.10 1019 10 16 0.00 0.00
4:53 am 04:53 Clear 45 7.2 41 5 86 86 Calm 30.09 1019 10 16 0.00 0.00
5:53 am 05:53 Clear 44 6.7 40 4.4 85 85 Calm 30.08 1019 10 16 0.00 0.00
6:53 am 06:53 Clear 42 5.6 39 3.9 89 89 Calm 30.07 1018 10 16 0.00 0.00
7:53 am 07:53 Sunny 43 6.1 41 5 93 93 Calm 30.10 1019 10 16 0.00 0.00
8:53 am 08:53 Sunny 52 11.1 44 6.7 75 75 ESE 3 6 30.09 1019 10 16 0.00 0.00
9:53 am 09:53 Sunny 58 14.4 44 6.7 60 60 Calm 30.08 1019 10 16 0.00 0.00
10:53 am 10:53 Sunny 66 18.9 47 8.3 50 50 Calm 30.06 1018 10 16 0.00 0.00
11:53 am 11:53 Sunny 72 22.2 50 10 46 46 VRB 5 7 30.05 1018 10 16 0.00 0.00
12:53 pm 12:53 Sunny 78 25.6 53 11.7 42 42 VRB 3 6 30.03 1017 10 16 0.00 0.00
1:53 pm 13:53 Sunny 82 27.8 54 12.2 38 38 Calm 30.01 1016 10 16 0.00 0.00
2:53 pm 14:53 Sunny 85 29.4 51 10.6 31 31 S 9 15 29.99 1016 10 16 0.00 0.00
3:53 pm 15:53 Sunny 86 30 48 8.9 27 27 S 9 15 29.97 1015 10 16 0.00 0.00
4:53 pm 16:53 Sunny 84 28.9 50 10 31 31 S 7 11 29.96 1015 10 16 0.00 0.00
5:53 pm 17:53 Sunny 84 28.9 53 11.7 34 34 S 6 9 29.96 1014 10 16 0.00 0.00
6:53 pm 18:53 Sunny 80 26.7 54 12.2 41 41 S 6 9 29.96 1015 10 16 0.00 0.00
7:53 pm 19:53 Sunny 73 22.8 54 12.2 51 51 SE 5 7 29.98 1015 10 16 0.00 0.00
8:53 pm 20:53 Clear 64 17.8 55 12.8 73 73 E 5 7 30.00 1016 10 16 0.00 0.00
9:53 pm 21:53 Clear 59 15 52 11.1 78 78 ESE 6 9 30.01 1016 10 16 0.00 0.00
10:53 pm 22:53 Clear 58 14.4 52 11.1 81 81 ESE 8 13 30.01 1016 10 16 0.00 0.00
11:53 pm 23:53 Clear 58 14.4 54 12.2 87 87 E 8 13 29.99 1016 10 16 0.00 0.00

Powered by AerisWeather